This demonstration page uses our WeatherBlox Daily Observations layout. Learn more.

Left ArrowRight Arrow

39.01783, -85.05884

Hourly Observations for May 12, 2015

Temp ( °F °C ) Dew Point ( °F °C ) Humidity (%) Winds ( mph kmh ) Pressure ( in mb ) Visibility ( mi km ) Precip ( " mm )
12:52 am 00:52 Partly Cloudy 64 17.8 62 16.7 93 93 SSW 6 9 29.98 1015 10 16 0.00 0.00
1:52 am 01:52 Mostly Clear 64 17.8 61 16.1 90 90 SW 6 9 29.98 1015 10 16 0.00 0.00
2:52 am 02:52 Partly Cloudy 63 17.2 61 16.1 93 93 SW 6 9 29.99 1016 10 16 0.00 0.00
3:52 am 03:52 Partly Cloudy 62 16.7 60 15.6 93 93 SW 5 7 29.99 1016 10 16 0.00 0.00
4:52 am 04:52 Partly Cloudy 62 16.7 60 15.6 93 93 W 7 11 30.00 1016 10 16 0.00 0.00
5:18 am 05:18 Mostly Cloudy 59 15 50 10 72 72 WNW 20 31 30.03 1017 10 16 0.00 0.00
5:52 am 05:52 Partly Cloudy 57 13.9 48 8.9 72 72 W 10 17 30.04 1017 10 16 0.00 0.00
6:52 am 06:52 Partly Cloudy 55 12.8 48 8.9 77 77 WSW 3 6 30.06 1018 10 16 0.00 0.00
7:52 am 07:52 Mostly Sunny 57 13.9 47 8.3 69 69 WSW 7 11 30.08 1019 10 16 0.00 0.00
8:52 am 08:52 Sunny 59 15 47 8.3 64 64 W 13 20 30.10 1019 10 16 0.00 0.00
9:52 am 09:52 Mostly Sunny 60 15.6 43 6.1 53 53 WSW 12 19 30.11 1020 10 16 0.00 0.00
10:52 am 10:52 Partly Cloudy 62 16.7 43 6.1 50 50 WSW 18 30 30.10 1019 10 16 0.00 0.00
11:52 am 11:52 Partly Cloudy 65 18.3 45 7.2 49 49 SW 10 17 30.09 1019 10 16 0.00 0.00
12:52 pm 12:52 Mostly Sunny 67 19.4 45 7.2 45 45 W 18 30 30.09 1019 10 16 0.00 0.00
1:52 pm 13:52 Partly Cloudy 67 19.4 44 6.7 44 44 WSW 13 20 30.09 1019 10 16 0.00 0.00
2:52 pm 14:52 Mostly Sunny 68 20 44 6.7 42 42 WSW 16 26 30.11 1020 10 16 0.00 0.00
3:52 pm 15:52 Partly Cloudy 70 21.1 44 6.7 39 39 W 17 28 30.11 1020 10 16 0.00 0.00
4:52 pm 16:52 Partly Cloudy 68 20 44 6.7 42 42 WSW 17 28 30.11 1020 10 16 0.00 0.00
5:52 pm 17:52 Mostly Cloudy 69 20.6 45 7.2 42 42 W 21 33 30.13 1020 10 16 0.00 0.00
6:52 pm 18:52 Cloudy 66 18.9 44 6.7 45 45 WNW 15 24 30.15 1021 10 16 0.00 0.00
7:52 pm 19:52 Cloudy 63 17.2 43 6.1 48 48 WNW 14 22 30.18 1022 10 16 0.00 0.00
8:52 pm 20:52 Mostly Cloudy 60 15.6 43 6.1 53 53 NW 9 15 30.19 1022 10 16 0.00 0.00
9:52 pm 21:52 Cloudy 58 14.4 42 5.6 56 56 NW 6 9 30.21 1023 10 16 0.00 0.00
10:52 pm 22:52 Cloudy 58 14.4 43 6.1 58 58 NW 8 13 30.23 1024 10 16 0.00 0.00
11:52 pm 23:52 Mostly Cloudy 54 12.2 43 6.1 67 67 NNW 5 7 30.24 1024 10 16 0.00 0.00

Powered by AerisWeather